Location: Grust
(42.8833°N, 0.0333°W)
Time: 14:39:54
(UTC+00:00)

CZ-2C R/B - Pass Details

Date: 25 October 2020
Orbit: 703 x 909 km, 98.1° (Epoch: 24 November)

Event Time Altitude Azimuth Distance (km) Brightness Sun altitude
Rises 19:13:53 0° 181° (S) 3,522 6.4 -24.8°
Reaches altitude 10° 19:16:23 10° 187° (S) 2,585 5.7 -25.3°
Maximum altitude 19:22:00 49° 261° (W) 1,142 4.2 -26.3°
Drops below altitude 10° 19:27:32 10° 336° (NNW) 2,548 6.0 -27.3°
Sets 19:30:00 0° 342° (NNW) 3,467 6.7 -27.8°
